M I D A S
Marine Information and Data Acquisition System
Tripno 599 of the Zeeleeuw from 2003-09-26 07:01:59 to 2003-09-26 15:27:12
Back to CruiseResearch ActivitiesStationsMapUnderway DataData graphs

EquipmentUnitsComments
TimeDGPSUTC
LatitudeDGPSDM.mWGS84
LongitudeDGPSDM.mWGS84
SpeedMeteo Stationm/sRelative wind speed
DirectionMeteo StationdegRelative wind direction
TemperatureMeteo Stationdeg CelciusAir temperature
PressureMeteo StationPaAtmospheric pressure
HumidityMeteo Station%Relative humidity
Missing or incorrect values are displayed as -999
Metereological data collected by the RV Zeeleeuw from 2003-09-26 07:01:59 to 2003-09-26 15:27:12
                                                                                    Next 1000 lines
Time Latitude Longitude Speed Direction Temperature Pressure Humidity
2003-09-26 07:02:07 51°13.69 2°55.83 1 134 9.9 101860 85
2003-09-26 07:02:13 51°13.69 2°55.82 1.2 141 9.9 101860 85
2003-09-26 07:02:17 51°13.69 2°55.82 1.2 140 10 101860 85
2003-09-26 07:02:23 51°13.69 2°55.81 1.1 130 10 101860 85
2003-09-26 07:02:27 51°13.69 2°55.81 1.1 131 10 101860 85
2003-09-26 07:02:33 51°13.7 2°55.8 1.5 141 10 101860 85
2003-09-26 07:02:37 51°13.7 2°55.8 1.6 145 10 101860 85
2003-09-26 07:02:43 51°13.7 2°55.79 1.5 135 10 101860 85
2003-09-26 07:02:47 51°13.7 2°55.79 1.5 142 10.1 101860 84
2003-09-26 07:02:53 51°13.7 2°55.78 1.3 136 10.1 101860 84
2003-09-26 07:02:57 51°13.7 2°55.78 1.2 135 10.1 101850 84
2003-09-26 07:03:01 51°13.7 2°55.77 1.1 143 10.1 101850 84
2003-09-26 07:03:07 51°13.7 2°55.77 1.2 150 10.1 101860 84
2003-09-26 07:03:11 51°13.7 2°55.76 1.5 154 10.1 101860 84
2003-09-26 07:03:15 51°13.7 2°55.76 1.4 156 10.2 101860 84
2003-09-26 07:03:21 51°13.7 2°55.75 1.1 147 10.2 101860 84
2003-09-26 07:03:25 51°13.7 2°55.75 1.1 139 10.2 101860 84
2003-09-26 07:03:31 51°13.7 2°55.75 1 133 10.2 101860 84
2003-09-26 07:03:35 51°13.7 2°55.74 1 125 10.2 101860 84
2003-09-26 07:03:41 51°13.7 2°55.74 1.2 136 10.2 101860 84
2003-09-26 07:03:47 51°13.7 2°55.74 0.8 137 10.2 101860 84
2003-09-26 07:03:51 51°13.7 2°55.74 0.7 137 10.2 101860 84
2003-09-26 07:03:55 51°13.7 2°55.75 0.7 137 10.3 101860 84
2003-09-26 07:04:01 51°13.7 2°55.75 0.6 136 10.3 101860 84
2003-09-26 07:04:05 51°13.7 2°55.75 0.6 135 10.3 101860 84
2003-09-26 07:04:11 51°13.7 2°55.75 0.6 135 10.3 101860 84
2003-09-26 07:04:17 51°13.71 2°55.75 0.5 135 10.3 101860 84
2003-09-26 07:04:21 51°13.71 2°55.75 0.3 120 10.3 101860 84
2003-09-26 07:04:27 51°13.71 2°55.75 0.4 117 10.4 101860 84
2003-09-26 07:04:31 51°13.71 2°55.76 0.3 112 10.4 101860 84
2003-09-26 07:04:35 51°13.71 2°55.76 0.2 112 10.4 101850 84
2003-09-26 07:04:41 51°13.72 2°55.76 0.1 112 10.4 101850 84
2003-09-26 07:04:47 51°13.72 2°55.76 0.1 112 10.4 101850 84
2003-09-26 07:04:52 51°13.73 2°55.75 0.8 75 10.4 101850 84
2003-09-26 07:04:57 51°13.73 2°55.75 1 69 10.5 101860 84
2003-09-26 07:05:02 51°13.73 2°55.75 0.8 65 10.5 101860 84
2003-09-26 07:05:07 51°13.74 2°55.75 0.7 55 10.5 101860 85
2003-09-26 07:05:11 51°13.74 2°55.74 1 18 10.5 101860 85
2003-09-26 07:05:17 51°13.74 2°55.74 1.2 34 10.5 101860 85
2003-09-26 07:05:21 51°13.75 2°55.73 1.9 355 10.5 101860 85
2003-09-26 07:05:27 51°13.75 2°55.73 1.9 355 10.6 101860 84
2003-09-26 07:05:31 51°13.76 2°55.72 2.7 355 10.6 101860 84
2003-09-26 07:05:35 51°13.76 2°55.72 2.2 355 10.6 101860 84
2003-09-26 07:05:41 51°13.77 2°55.71 2.5 14 10.6 101860 84
2003-09-26 07:05:47 51°13.78 2°55.7 1.9 9 10.6 101860 84
2003-09-26 07:05:51 51°13.78 2°55.69 1.8 2 10.6 101860 84
2003-09-26 07:05:55 51°13.79 2°55.68 2.4 355 10.6 101860 84
2003-09-26 07:06:01 51°13.79 2°55.67 2.3 353 10.6 101860 84
2003-09-26 07:06:08 51°13.8 2°55.66 2.4   10.7 101860 84
2003-09-26 07:06:11 51°13.81 2°55.66 2.3 10 10.7 101860 84
2003-09-26 07:06:15 51°13.82 2°55.65 3 357 10.7 101860 84
2003-09-26 07:06:22 51°13.83 2°55.64 2.8   10.7 101860 84
2003-09-26 07:06:28 51°13.84 2°55.63 3 351 10.7 101860 84
2003-09-26 07:06:32 51°13.84 2°55.62 2.7 352 10.7 101860 84
2003-09-26 07:06:36 51°13.85 2°55.62 2.7 350 10.7 101860 84
2003-09-26 07:06:41 51°13.86 2°55.61 3.4 351 10.7 101860 84
2003-09-26 07:06:47 51°13.87 2°55.6 4 7 10.7 101860 84
2003-09-26 07:06:52 51°13.88 2°55.59 3.6 6 10.7 101860 84
2003-09-26 07:06:56 51°13.89 2°55.59 4.4 5 10.8 101860 84
2003-09-26 07:07:01 51°13.9 2°55.58 3.8 360 10.8 101860 84
2003-09-26 07:07:08 51°13.91 2°55.57 4.5 356 10.8 101860 84
2003-09-26 07:07:11 51°13.92 2°55.56 4.4 349 10.8 101860 84
2003-09-26 07:07:15 51°13.93 2°55.56 6.1 5 10.9 101850 84
2003-09-26 07:07:20 51°13.94 2°55.55 7.6 4 10.9 101850 84
2003-09-26 07:07:27 51°13.95 2°55.54 6.9   11 101850 85
2003-09-26 07:07:31 51°13.96 2°55.54 6.3 7 11 101850 85
2003-09-26 07:07:37 51°13.97 2°55.53 6.9 359 11.1 101850 85
2003-09-26 07:07:41 51°13.98 2°55.52 6.9 356 11.1 101850 85
2003-09-26 07:07:47 51°13.99 2°55.51 6.9 356 11.2 101850 85
2003-09-26 07:07:51 51°14 2°55.51 6.3 355 11.2 101850 85
2003-09-26 07:07:55 51°14.01 2°55.5 7.6 354 11.4 101850 85
2003-09-26 07:08:01 51°14.02 2°55.5 6.6 357 11.4 101850 85
2003-09-26 07:08:07 51°14.03 2°55.49 9 352 11.5 101850 86
2003-09-26 07:08:11 51°14.04 2°55.48 9.7 352 11.5 101850 86
2003-09-26 07:08:16 51°14.05 2°55.48 9.3 350 11.7 101850 86
2003-09-26 07:08:22 51°14.06 2°55.47 8.7 350 11.7 101850 86
2003-09-26 07:08:28 51°14.07 2°55.46 9 346 11.9 101840 86
2003-09-26 07:08:32 51°14.08 2°55.45 9.6 350 11.9 101840 86
2003-09-26 07:08:36 51°14.09 2°55.45 9.9 349 12 101840 86
2003-09-26 07:08:42 51°14.1 2°55.44 10.1 347 12 101840 86
2003-09-26 07:08:47 51°14.11 2°55.43 9.9 349 12.2 101840 85
2003-09-26 07:08:51 51°14.12 2°55.42 9.6 346 12.2 101840 85
2003-09-26 07:08:55 51°14.13 2°55.42 9.8 348 12.3 101840 85
2003-09-26 07:09:01 51°14.14 2°55.41 9.9 347 12.3 101840 85
2003-09-26 07:09:07 51°14.15 2°55.4 8.4 352 12.5 101840 85
2003-09-26 07:09:12 51°14.16 2°55.39 9.8 348 12.5 101840 85
2003-09-26 07:09:16 51°14.17 2°55.38 9.7 347 12.7 101840 84
2003-09-26 07:09:22 51°14.18 2°55.37 8.2 352 12.7 101840 84
2003-09-26 07:09:27 51°14.19 2°55.36 10.3 350 12.8 101840 83
2003-09-26 07:09:31 51°14.2 2°55.35 10.3 360 12.8 101840 83
2003-09-26 07:09:35 51°14.2 2°55.34 8.5 359 12.9 101840 82
2003-09-26 07:09:39 51°14.21 2°55.33 9.4 358 12.9 101840 82
2003-09-26 07:09:47 51°14.23 2°55.31 8.5 358 13.1 101830 82
2003-09-26 07:09:51 51°14.23 2°55.3 9.6 357 13.1 101830 82
2003-09-26 07:09:57 51°14.24 2°55.28 9.9 2 13.2 101840 81
2003-09-26 07:10:01 51°14.25 2°55.27 10.4 358 13.2 101840 81
2003-09-26 07:10:07 51°14.26 2°55.25 11 357 13.4 101840 81
2003-09-26 07:10:11 51°14.27 2°55.24 9.5 356 13.4 101840 81
2003-09-26 07:10:17 51°14.28 2°55.22 9.8 355 13.5 101840 80
2003-09-26 07:10:21 51°14.28 2°55.21 10.4 1 13.5 101840 80
2003-09-26 07:10:27 51°14.29 2°55.19 11.3   13.6 101840 79
2003-09-26 07:10:31 51°14.3 2°55.18 10.1 4 13.6 101840 79
2003-09-26 07:10:35 51°14.31 2°55.17 10.1 1 13.7 101840 79
2003-09-26 07:10:39 51°14.32 2°55.15 10.3 359 13.7 101840 79
2003-09-26 07:10:47 51°14.33 2°55.13 10.1 6 13.9 101840 79
2003-09-26 07:10:51 51°14.34 2°55.11 10.2 359 13.9 101840 79
2003-09-26 07:10:55 51°14.34 2°55.1 10.8 359 14 101840 78
2003-09-26 07:11:01 51°14.35 2°55.08 10   14 101840 78
2003-09-26 07:11:07 51°14.36 2°55.06 9.9 1 14.1 101840 78
2003-09-26 07:11:11 51°14.37 2°55.05 10.3 3 14.1 101840 78
2003-09-26 07:11:15 51°14.38 2°55.04 10.9 1 14.3 101840 77
2003-09-26 07:11:21 51°14.39 2°55.01 9.9 5 14.3 101840 77
2003-09-26 07:11:27 51°14.39 2°54.99 10.9 359 14.4 101840 77
2003-09-26 07:11:31 51°14.4 2°54.98 10.7 355 14.4 101840 77
2003-09-26 07:11:35 51°14.41 2°54.96 10.6 355 14.5 101840 76
2003-09-26 07:11:41 51°14.42 2°54.94 10.9 358 14.5 101840 76
2003-09-26 07:11:47 51°14.43 2°54.92 11.5 354 14.6 101830 75
2003-09-26 07:11:51 51°14.44 2°54.91 11.8 357 14.6 101830 75
2003-09-26 07:11:57 51°14.45 2°54.89 12.6 350 14.6 101830 74
2003-09-26 07:11:59 51°14.45 2°54.88 13 356 14.6 101830 74
2003-09-26 07:12:05 51°14.46 2°54.86 13 354 14.7 101830 73
2003-09-26 07:12:11 51°14.47 2°54.84 12.3 354 14.7 101830 73
2003-09-26 07:12:15 51°14.48 2°54.82 11.5 352 14.8 101830 73
2003-09-26 07:12:19 51°14.49 2°54.81 13.1 353 14.8 101830 73
2003-09-26 07:12:27 51°14.51 2°54.79 12.5 352 14.8 101820 73
2003-09-26 07:12:32 51°14.52 2°54.77 12.3 349 14.8 101820 73
2003-09-26 07:12:36 51°14.53 2°54.76 12.2 350 14.9 101820 72
2003-09-26 07:12:41 51°14.54 2°54.75 12.7 346 14.9 101820 72
2003-09-26 07:12:47 51°14.56 2°54.74 12.6 345 15 101830 72
2003-09-26 07:12:51 51°14.57 2°54.73 12.4 346 15 101830 72
2003-09-26 07:12:55 51°14.58 2°54.72 12.5 345 15 101820 71
2003-09-26 07:13:01 51°14.59 2°54.7 11.8 343 15 101820 71
2003-09-26 07:13:07 51°14.61 2°54.69 13 342 15 101820 70
2003-09-26 07:13:11 51°14.62 2°54.68 12.5 343 15 101820 70
2003-09-26 07:13:15 51°14.63 2°54.68 13.5 344 15.1 101820 70
2003-09-26 07:13:19 51°14.64 2°54.67 13 344 15.1 101820 70
2003-09-26 07:13:27 51°14.66 2°54.65 13.6 344 15.1 101820 69
2003-09-26 07:13:31 51°14.67 2°54.64 13.2 345 15.1 101820 69
2003-09-26 07:13:37 51°14.69 2°54.63 13.3 344 15.1 101820 69
2003-09-26 07:13:41 51°14.7 2°54.62 12.3 344 15.1 101820 69
2003-09-26 07:13:47 51°14.72 2°54.61 12.9 343 15.2 101810 69
2003-09-26 07:13:51 51°14.73 2°54.6 13.1 340 15.2 101810 69
2003-09-26 07:13:55 51°14.74 2°54.6 12.7 341 15.2 101820 69
2003-09-26 07:14:01 51°14.76 2°54.59 13.2 343 15.2 101820 69
2003-09-26 07:14:07 51°14.77 2°54.57 13.1 342 15.3 101820 69
2003-09-26 07:14:11 51°14.78 2°54.57 13.1 343 15.3 101820 69
2003-09-26 07:14:15 51°14.8 2°54.56 13.1 344 15.3 101810 68
2003-09-26 07:14:21 51°14.81 2°54.55 12.9 344 15.3 101810 68
2003-09-26 07:14:27 51°14.83 2°54.54 12.8 345 15.3 101820 68
2003-09-26 07:14:31 51°14.84 2°54.54 12.6 344 15.3 101820 68
2003-09-26 07:14:35 51°14.85 2°54.53 12.4 343 15.4 101810 68
2003-09-26 07:14:41 51°14.87 2°54.52 12.5 342 15.4 101810 68
2003-09-26 07:14:47 51°14.89 2°54.51 12.8 341 15.3 101810 67
2003-09-26 07:14:51 51°14.9 2°54.51 11.9 343 15.3 101810 67
2003-09-26 07:14:55 51°14.91 2°54.5 12 345 15.3 101820 67
2003-09-26 07:15:01 51°14.93 2°54.49 13.3 344 15.3 101820 67
2003-09-26 07:15:07 51°14.94 2°54.48 12.6 344 15.3 101820 67
2003-09-26 07:15:11 51°14.96 2°54.47 12.8 347 15.3 101820 67
2003-09-26 07:15:15 51°14.97 2°54.46 13.2 348 15.4 101820 67
2003-09-26 07:15:21 51°14.98 2°54.45 12.3 342 15.4 101820 67
2003-09-26 07:15:25 51°15 2°54.45 12.7 345 15.4 101820 66
2003-09-26 07:15:31 51°15.01 2°54.44 12.4 343 15.4 101820 66
2003-09-26 07:15:35 51°15.02 2°54.43 13 343 15.4 101810 66
2003-09-26 07:15:41 51°15.04 2°54.42 12.1 341 15.4 101810 66
2003-09-26 07:15:47 51°15.06 2°54.42 12.1 340 15.4 101820 66
2003-09-26 07:15:51 51°15.07 2°54.41 13 344 15.4 101820 66
2003-09-26 07:15:57 51°15.09 2°54.4 12.1 340 15.4 101810 66
2003-09-26 07:16:01 51°15.1 2°54.4 12.3 340 15.4 101810 66
2003-09-26 07:16:07 51°15.12 2°54.39 12.2 340 15.4 101810 66
2003-09-26 07:16:11 51°15.13 2°54.38 12.1 338 15.4 101810 66
2003-09-26 07:16:15 51°15.14 2°54.38 12.2 338 15.4 101810 66
2003-09-26 07:16:21 51°15.16 2°54.37 11.6 331 15.4 101810 66
2003-09-26 07:16:27 51°15.17 2°54.37 10.7 328 15.4 101810 65
2003-09-26 07:16:31 51°15.18 2°54.37 10.3 326 15.4 101810 65
2003-09-26 07:16:37 51°15.2 2°54.38 9.6 319 15.4 101820 65
2003-09-26 07:16:41 51°15.21 2°54.38 9.8 323 15.4 101820 65
2003-09-26 07:16:47 51°15.23 2°54.39 9.9 321 15.4 101820 65
2003-09-26 07:16:51 51°15.24 2°54.39 9.7 328 15.4 101820 65
2003-09-26 07:16:55 51°15.25 2°54.4 9.6 327 15.4 101820 64
2003-09-26 07:17:01 51°15.27 2°54.4 11.2 330 15.4 101820 64
2003-09-26 07:17:07 51°15.28 2°54.41 10.8 327 15.4 101820 65
2003-09-26 07:17:11 51°15.29 2°54.41 10.6 327 15.4 101820 65
2003-09-26 07:17:15 51°15.31 2°54.41 9.8 327 15.5 101830 65
2003-09-26 07:17:21 51°15.32 2°54.42 11.5 332 15.5 101830 65
2003-09-26 07:17:25 51°15.33 2°54.42 11.1 327 15.5 101820 66
2003-09-26 07:17:31 51°15.35 2°54.42 11.1 326 15.5 101820 66
2003-09-26 07:17:37 51°15.37 2°54.43 11.6 329 15.5 101820 65
2003-09-26 07:17:41 51°15.38 2°54.43 11.2 330 15.5 101820 65
2003-09-26 07:17:47 51°15.4 2°54.43 12 333 15.5 101820 65
2003-09-26 07:17:51 51°15.41 2°54.43 11.2 328 15.5 101820 65
2003-09-26 07:17:55 51°15.42 2°54.43 12.5 328 15.5 101820 65
2003-09-26 07:18:01 51°15.44 2°54.44 11.7 331 15.5 101820 65
2003-09-26 07:18:07 51°15.45 2°54.44 11.5 330 15.6 101820 65
2003-09-26 07:18:11 51°15.47 2°54.44 12.1 331 15.6 101820 65
2003-09-26 07:18:15 51°15.48 2°54.44 11.1 333 15.6 101810 65
2003-09-26 07:18:21 51°15.49 2°54.44 12.3 334 15.6 101810 65
2003-09-26 07:18:27 51°15.51 2°54.45 11.3 328 15.6 101810 65
2003-09-26 07:18:31 51°15.52 2°54.45 12.1 332 15.6 101810 65
2003-09-26 07:18:35 51°15.53 2°54.45 12.1 333 15.6 101820 64
2003-09-26 07:18:41 51°15.55 2°54.44 11.8 332 15.6 101820 64
2003-09-26 07:18:47 51°15.57 2°54.44 11.4 337 15.6 101820 65
2003-09-26 07:18:51 51°15.58 2°54.44 10.9 334 15.6 101820 65
2003-09-26 07:18:55 51°15.59 2°54.44 11.7 334 15.6 101810 65
2003-09-26 07:19:01 51°15.61 2°54.43 11.2 335 15.6 101810 65
2003-09-26 07:19:07 51°15.63 2°54.43 11.9 336 15.6 101810 64
2003-09-26 07:19:11 51°15.64 2°54.43 10.8 332 15.6 101810 64
2003-09-26 07:19:17 51°15.66 2°54.42 10.6 333 15.5 101810 64
2003-09-26 07:19:21 51°15.67 2°54.42 12 334 15.5 101810 64
2003-09-26 07:19:27 51°15.69 2°54.41 11.2 335 15.6 101820 64
2003-09-26 07:19:31 51°15.7 2°54.41 11.9 332 15.6 101820 64
2003-09-26 07:19:37 51°15.72 2°54.4 12.7 329 15.6 101820 63
2003-09-26 07:19:41 51°15.73 2°54.4 11.4 337 15.6 101820 63
2003-09-26 07:19:47 51°15.74 2°54.4 10.3 330 15.6 101820 64
2003-09-26 07:19:51 51°15.76 2°54.4 12.1 331 15.6 101820 64
2003-09-26 07:19:55 51°15.77 2°54.39 12.1 330 15.6 101810 64
2003-09-26 07:20:01 51°15.79 2°54.39 12 328 15.6 101810 64
2003-09-26 07:20:07 51°15.8 2°54.39 11.9 327 15.6 101820 64
2003-09-26 07:20:11 51°15.81 2°54.38 11.6 328 15.6 101820 64
2003-09-26 07:20:15 51°15.83 2°54.38 11.8 328 15.6 101820 64
2003-09-26 07:20:21 51°15.84 2°54.37 11.1 331 15.6 101820 64
2003-09-26 07:20:27 51°15.86 2°54.36 11.4 342 15.6 101810 63
2003-09-26 07:20:31 51°15.87 2°54.35 12.2 342 15.6 101810 63
2003-09-26 07:20:37 51°15.89 2°54.34 13 341 15.6 101820 63
2003-09-26 07:20:41 51°15.9 2°54.33 12.5 341 15.6 101820 63
2003-09-26 07:20:47 51°15.91 2°54.32 12.2 342 15.6 101810 63
2003-09-26 07:20:51 51°15.92 2°54.31 12.5 339 15.6 101810 63
2003-09-26 07:20:57 51°15.94 2°54.29 13 340 15.6 101820 64
2003-09-26 07:21:01 51°15.95 2°54.28 12.8 343 15.6 101820 64
2003-09-26 07:21:07 51°15.96 2°54.26 11.9 344 15.6 101810 63
2003-09-26 07:21:11 51°15.97 2°54.25 11.9 346 15.6 101810 63
2003-09-26 07:21:15 51°15.98 2°54.24 11.8 345 15.6 101820 63
2003-09-26 07:21:21 51°15.99 2°54.22 11.9 345 15.6 101820 63
2003-09-26 07:21:27 51°16 2°54.21 10.7 339 15.6 101810 63
2003-09-26 07:21:31 51°16.01 2°54.2 11.2 341 15.6 101810 63
2003-09-26 07:21:35 51°16.02 2°54.19 10.2 342 15.6 101810 63
2003-09-26 07:21:41 51°16.03 2°54.18 11 329 15.6 101810 63
2003-09-26 07:21:47 51°16.04 2°54.17 10.1 326 15.6 101820 64
2003-09-26 07:21:51 51°16.05 2°54.16 9.8 322 15.6 101820 64
2003-09-26 07:21:57 51°16.06 2°54.16 9.6 324 15.6 101820 63
2003-09-26 07:22:01 51°16.06 2°54.15 9 41 15.6 101820 63
2003-09-26 07:22:07 51°16.07 2°54.15 9.3 318 15.6 101820 63
2003-09-26 07:22:11 51°16.08 2°54.15 8.4 320 15.6 101820 63
2003-09-26 07:22:15 51°16.08 2°54.15 7.8 314 15.6 101820 63
2003-09-26 07:22:21 51°16.09 2°54.15 8.2 306 15.6 101820 63
2003-09-26 07:22:27 51°16.1 2°54.16 8.4 305 15.7 101830 64
2003-09-26 07:22:31 51°16.1 2°54.16 7.8 301 15.7 101830 64
2003-09-26 07:22:37 51°16.11 2°54.16 8.2 300 15.7 101830 64
2003-09-26 07:22:41 51°16.11 2°54.16 8.1 291 15.7 101830 64
2003-09-26 07:22:47 51°16.12 2°54.17 7.1 289 15.7 101840 64
2003-09-26 07:22:51 51°16.12 2°54.17 7.3 297 15.7 101840 64
2003-09-26 07:22:57 51°16.13 2°54.17 7.3 291 15.7 101840 64
2003-09-26 07:23:01 51°16.13 2°54.18 7.4 294 15.7 101840 64
2003-09-26 07:23:07 51°16.13 2°54.18 6.1 291 15.7 101840 63
2003-09-26 07:23:11 51°16.14 2°54.18 7.6 278 15.7 101840 63
2003-09-26 07:23:15 51°16.14 2°54.19 6.6 287 15.7 101840 63
2003-09-26 07:23:21 51°16.14 2°54.19 7.1 284 15.7 101840 63
2003-09-26 07:23:27 51°16.15 2°54.19 7.7 284 15.7 101840 64
2003-09-26 07:23:31 51°16.15 2°54.2 7 282 15.7 101840 64
2003-09-26 07:23:35 51°16.15 2°54.2 6.7 283 15.7 101840 64
2003-09-26 07:23:41 51°16.16 2°54.2 6.6 283 15.7 101840 64
2003-09-26 07:23:47 51°16.16 2°54.21 6.8 287 15.7 101840 64
2003-09-26 07:23:51 51°16.17 2°54.21 7.3 281 15.7 101840 64
2003-09-26 07:23:55 51°16.17 2°54.21 7.3 284 15.7 101840 64
2003-09-26 07:24:01 51°16.17 2°54.21 7.3 282 15.7 101840 64
2003-09-26 07:24:07 51°16.18 2°54.22 6.8 282 15.7 101840 64
2003-09-26 07:24:11 51°16.18 2°54.22 6.9 283 15.7 101840 64
2003-09-26 07:24:17 51°16.19 2°54.22 6.5 281 15.7 101850 64
2003-09-26 07:24:21 51°16.19 2°54.23 6.5 285 15.7 101850 64
2003-09-26 07:24:27 51°16.19 2°54.23 6.9 288 15.7 101840 64
2003-09-26 07:24:31 51°16.2 2°54.23 6.5 287 15.7 101840 64
2003-09-26 07:24:35 51°16.2 2°54.23 6.4 282 15.7 101840 63
2003-09-26 07:24:41 51°16.2 2°54.24 5.8 278 15.7 101840 63
2003-09-26 07:24:45 51°16.2 2°54.24 6.1 291 15.7 101850 63
2003-09-26 07:24:51 51°16.21 2°54.24 5.9 289 15.7 101850 63
2003-09-26 07:24:55 51°16.21 2°54.24 6 292 15.7 101850 63
2003-09-26 07:25:01 51°16.21 2°54.25 6.2 295 15.7 101850 63
2003-09-26 07:25:07 51°16.22 2°54.25 6.3 292 15.7 101850 63
2003-09-26 07:25:11 51°16.22 2°54.25 6.6 291 15.7 101850 63
2003-09-26 07:25:15 51°16.22 2°54.25 6.1 287 15.7 101850 63
2003-09-26 07:25:21 51°16.23 2°54.26 5.9 287 15.7 101850 63
2003-09-26 07:25:25 51°16.23 2°54.26 6.2 285 15.7 101850 63
2003-09-26 07:25:31 51°16.23 2°54.26 6.7 290 15.7 101850 63
2003-09-26 07:25:35 51°16.23 2°54.26 6.6 285 15.8 101850 63
2003-09-26 07:25:41 51°16.24 2°54.26 6.3 291 15.8 101850 63
2003-09-26 07:25:47 51°16.24 2°54.26 5.8 295 15.8 101850 63
2003-09-26 07:25:51 51°16.24 2°54.27 6.2 290 15.8 101850 63
2003-09-26 07:25:55 51°16.24 2°54.27 6.6 294 15.8 101850 63
2003-09-26 07:26:01 51°16.24 2°54.27 6.3 297 15.8 101850 63
2003-09-26 07:26:07 51°16.25 2°54.27 6.2 296 15.8 101850 63
2003-09-26 07:26:11 51°16.25 2°54.27 6.4 292 15.8 101850 63
2003-09-26 07:26:15 51°16.25 2°54.27 6.9 293 15.8 101850 63
2003-09-26 07:26:21 51°16.25 2°54.26 6.7 291 15.8 101850 63
2003-09-26 07:26:27 51°16.25 2°54.26 6.9 296 15.8 101840 63
2003-09-26 07:26:31 51°16.25 2°54.26 6.4 297 15.8 101840 63
2003-09-26 07:26:37 51°16.25 2°54.26 6.1 296 15.8 101840 63
2003-09-26 07:26:41 51°16.24 2°54.26 6.1 288 15.8 101840 63
2003-09-26 07:26:47 51°16.24 2°54.26 5.7 284 15.8 101850 63
2003-09-26 07:26:51 51°16.24 2°54.26 5.8 293 15.8 101850 63
2003-09-26 07:26:57 51°16.24 2°54.26 6.4 287 15.8 101850 63
2003-09-26 07:27:01 51°16.24 2°54.26 6.3 287 15.8 101850 63
2003-09-26 07:27:07 51°16.24 2°54.25 5.6 293 15.8 101850 63
2003-09-26 07:27:11 51°16.24 2°54.25 6.7 294 15.8 101850 63
2003-09-26 07:27:15 51°16.24 2°54.25 6.1 295 15.8 101850 63
2003-09-26 07:27:21 51°16.24 2°54.25 7 298 15.8 101850 63
2003-09-26 07:27:27 51°16.24 2°54.25 6.2 299 15.9 101840 63
2003-09-26 07:27:31 51°16.24 2°54.25 6 298 15.9 101840 63
2003-09-26 07:27:35 51°16.24 2°54.25 6 299 15.9 101850 63
2003-09-26 07:27:41 51°16.24 2°54.24 6 300 15.9 101850 63
2003-09-26 07:27:47 51°16.24 2°54.24 6 303 15.9 101850 63
2003-09-26 07:27:51 51°16.24 2°54.24 7.7 296 15.9 101850 63
2003-09-26 07:27:57 51°16.24 2°54.24 6.9 294 15.9 101850 63
2003-09-26 07:28:01 51°16.24 2°54.24 6.9 294 15.9 101850 63
2003-09-26 07:28:07 51°16.23 2°54.24 7.2 292 15.9 101850 63
2003-09-26 07:28:11 51°16.23 2°54.24 7.2 285 15.9 101850 63
2003-09-26 07:28:15 51°16.23 2°54.24 6.8 285 15.9 101850 64
2003-09-26 07:28:21 51°16.23 2°54.23 7.2 285 15.9 101850 64
2003-09-26 07:28:27 51°16.23 2°54.23 6.4 285 15.9 101840 64
2003-09-26 07:28:31 51°16.23 2°54.23 7.1 287 15.9 101840 64
2003-09-26 07:28:35 51°16.23 2°54.23 6.3 284 15.9 101840 64
2003-09-26 07:28:41 51°16.23 2°54.23 6.5 280 15.9 101840 64
2003-09-26 07:28:45 51°16.23 2°54.23 6.5 281 15.9 101850 64
2003-09-26 07:28:51 51°16.23 2°54.22 6.3 283 15.9 101850 64
2003-09-26 07:28:55 51°16.23 2°54.22 6.2 281 15.9 101850 63
2003-09-26 07:29:01 51°16.23 2°54.22 6.1 277 15.9 101850 63
2003-09-26 07:29:07 51°16.23 2°54.22 6.1 277 15.9 101850 63
2003-09-26 07:29:11 51°16.23 2°54.22 6.7 288 15.9 101850 63
2003-09-26 07:29:15 51°16.23 2°54.22 6.9 293 15.9 101850 63
2003-09-26 07:29:21 51°16.23 2°54.21 6.6 302 15.9 101850 63
2003-09-26 07:29:27 51°16.23 2°54.21 7.2 310 15.8 101850 63
2003-09-26 07:29:31 51°16.23 2°54.21 7.9 322 15.8 101850 63
2003-09-26 07:29:35 51°16.23 2°54.21 7.6 324 15.9 101850 63
2003-09-26 07:29:41 51°16.24 2°54.2 8.9 338 15.9 101850 63
2003-09-26 07:29:47 51°16.25 2°54.19 9.3 336 15.8 101850 63
2003-09-26 07:29:51 51°16.25 2°54.18 10.1 343 15.8 101850 63
2003-09-26 07:29:55 51°16.26 2°54.17 10.2 344 15.8 101840 62
2003-09-26 07:30:01 51°16.27 2°54.16 10.9 344 15.8 101840 62
2003-09-26 07:30:07 51°16.28 2°54.14 10.4 343 15.8 101840 62
2003-09-26 07:30:11 51°16.28 2°54.13 10.7 345 15.8 101840 62
2003-09-26 07:30:15 51°16.29 2°54.12 12.1 341 15.8 101830 62
2003-09-26 07:30:21 51°16.3 2°54.1 12 341 15.8 101830 62
2003-09-26 07:30:27 51°16.32 2°54.08 10.9 344 15.8 101830 62
2003-09-26 07:30:31 51°16.32 2°54.07 12.3 343 15.8 101830 62
2003-09-26 07:30:35 51°16.33 2°54.05 12 344 15.8 101830 62
2003-09-26 07:30:41 51°16.35 2°54.03 13 346 15.8 101830 62
2003-09-26 07:30:47 51°16.36 2°54.01 13.8 345 15.8 101830 62
2003-09-26 07:30:51 51°16.37 2°53.99 13.5 349 15.8 101830 62
2003-09-26 07:30:55 51°16.38 2°53.98 12.8 350 15.9 101820 63
2003-09-26 07:31:01 51°16.4 2°53.95 12.7 351 15.9 101820 63
2003-09-26 07:31:07 51°16.41 2°53.92 12.5 350 15.9 101820 63
2003-09-26 07:31:11 51°16.42 2°53.91 12.9 352 15.9 101820 63
2003-09-26 07:31:15 51°16.43 2°53.89 12.9 352 15.8 101820 62
2003-09-26 07:31:21 51°16.45 2°53.86 13.2 355 15.8 101820 62
2003-09-26 07:31:27 51°16.46 2°53.84 13.1 357 15.8 101820 62
2003-09-26 07:31:31 51°16.47 2°53.82 13.6 358 15.8 101820 62
2003-09-26 07:31:37 51°16.49 2°53.79 12.7 355 15.8 101820 61
2003-09-26 07:31:41 51°16.49 2°53.77 13.4 356 15.8 101820 61
2003-09-26 07:31:47 51°16.51 2°53.75 12.8 353 15.7 101820 61
2003-09-26 07:31:51 51°16.52 2°53.73 13.4 359 15.7 101820 61
2003-09-26 07:31:57 51°16.53 2°53.7 13.6 358 15.8 101830 61
2003-09-26 07:32:01 51°16.54 2°53.68 12.9 358 15.8 101830 61
2003-09-26 07:32:07 51°16.55 2°53.65 12.9 358 15.8 101820 61
2003-09-26 07:32:11 51°16.56 2°53.64 12.9 356 15.8 101820 61
2003-09-26 07:32:15 51°16.57 2°53.62 12.7   15.8 101830 61
2003-09-26 07:32:21 51°16.59 2°53.59 12.8 347 15.8 101830 61
2003-09-26 07:32:27 51°16.6 2°53.56 13.7 350 15.7 101830 61
2003-09-26 07:32:31 51°16.61 2°53.54 13.6 348 15.7 101830 61
2003-09-26 07:32:37 51°16.63 2°53.52 12.9 350 15.7 101830 60
2003-09-26 07:32:41 51°16.64 2°53.5 13 349 15.7 101830 60
2003-09-26 07:32:47 51°16.65 2°53.47 12.5 351 15.7 101830 61
2003-09-26 07:32:51 51°16.66 2°53.45 13 350 15.7 101830 61
2003-09-26 07:32:55 51°16.67 2°53.43 13.2 353 15.8 101820 62
2003-09-26 07:33:01 51°16.68 2°53.41 12.1 354 15.8 101820 62
2003-09-26 07:33:07 51°16.7 2°53.38 12.7 354 15.8 101820 62
2003-09-26 07:33:11 51°16.71 2°53.36 12.3 356 15.8 101820 62
2003-09-26 07:33:17 51°16.72 2°53.33 12.7 358 15.8 101820 62
2003-09-26 07:33:21 51°16.73 2°53.31 12.5 357 15.8 101820 62
2003-09-26 07:33:27 51°16.74 2°53.29 12.6 358 15.9 101830 63
2003-09-26 07:33:31 51°16.75 2°53.27 12.4 359 15.9 101830 63
2003-09-26 07:33:35 51°16.76 2°53.25 12.6 356 15.9 101820 62
2003-09-26 07:33:41 51°16.78 2°53.22 13.6 360 15.9 101820 62
2003-09-26 07:33:47 51°16.79 2°53.19 13.3 356 15.8 101830 62
2003-09-26 07:33:51 51°16.8 2°53.18 13.1 358 15.8 101830 62
2003-09-26 07:33:57 51°16.81 2°53.15 12.4 359 15.8 101830 61
2003-09-26 07:34:01 51°16.82 2°53.13 13.4 360 15.8 101830 61
2003-09-26 07:34:05 51°16.83 2°53.11 12.1 358 15.8 101830 61
2003-09-26 07:34:11 51°16.85 2°53.09 12.6 355 15.8 101830 61
2003-09-26 07:34:15 51°16.85 2°53.07 12.5 350 15.7 101830 61
2003-09-26 07:34:21 51°16.87 2°53.04 12.8 352 15.7 101830 61
2003-09-26 07:34:27 51°16.88 2°53.02 12.4 352 15.7 101830 61
2003-09-26 07:34:31 51°16.89 2°53 12.2 352 15.7 101830 61
2003-09-26 07:34:35 51°16.9 2°52.98 11.9 350 15.7 101830 61
2003-09-26 07:34:41 51°16.91 2°52.96 12.2 347 15.7 101830 61
2003-09-26 07:34:47 51°16.93 2°52.93 12.1 348 15.8 101830 62
2003-09-26 07:34:51 51°16.94 2°52.92 11.6 350 15.8 101830 62
2003-09-26 07:34:55 51°16.95 2°52.9 12 344 15.8 101830 62
2003-09-26 07:35:01 51°16.96 2°52.88 11.5 349 15.8 101830 62
2003-09-26 07:35:07 51°16.97 2°52.85 12.6 350 15.8 101830 61
2003-09-26 07:35:11 51°16.98 2°52.84 13.3 352 15.8 101830 61
2003-09-26 07:35:17 51°17 2°52.81 13.9 352 15.8 101830 61
2003-09-26 07:35:21 51°17.01 2°52.79 14.1 354 15.8 101830 61
2003-09-26 07:35:27 51°17.02 2°52.77 13.8 354 15.8 101830 61
2003-09-26 07:35:31 51°17.03 2°52.75 13.2 356 15.8 101830 61
2003-09-26 07:35:35 51°17.04 2°52.73 13.5 355 15.8 101830 61
2003-09-26 07:35:41 51°17.05 2°52.7 13.1 353 15.8 101830 61
2003-09-26 07:35:45 51°17.06 2°52.68 12.7 354 15.8 101830 61
2003-09-26 07:35:51 51°17.08 2°52.65 12 353 15.8 101830 61
2003-09-26 07:35:55 51°17.09 2°52.63 12.5 355 15.8 101820 61
2003-09-26 07:36:01 51°17.1 2°52.6 11.9 352 15.8 101820 61
2003-09-26 07:36:07 51°17.11 2°52.58 12.6 350 15.8 101830 60
2003-09-26 07:36:11 51°17.12 2°52.56 12.3 350 15.8 101830 60
2003-09-26 07:36:17 51°17.14 2°52.53 12.8 351 15.8 101830 60
2003-09-26 07:36:21 51°17.14 2°52.52 13.6 353 15.8 101830 60
2003-09-26 07:36:27 51°17.16 2°52.49 12.6 353 15.8 101830 60
2003-09-26 07:36:31 51°17.17 2°52.47 12 355 15.8 101830 60
2003-09-26 07:36:37 51°17.18 2°52.44 11.6 354 15.8 101830 61
2003-09-26 07:36:41 51°17.19 2°52.43 12.3 350 15.8 101830 61
2003-09-26 07:36:47 51°17.21 2°52.4 12.1 348 15.8 101830 61
2003-09-26 07:36:51 51°17.22 2°52.39 11.5 348 15.8 101830 61
2003-09-26 07:36:55 51°17.23 2°52.37 11.8 348 15.7 101830 60
2003-09-26 07:37:01 51°17.24 2°52.35 13.1 348 15.7 101830 60
2003-09-26 07:37:07 51°17.26 2°52.32 13.3 349 15.7 101830 60
2003-09-26 07:37:11 51°17.27 2°52.31 12.5 347 15.7 101830 60
2003-09-26 07:37:17 51°17.29 2°52.29 12.3 348 15.8 101840 61
2003-09-26 07:37:21 51°17.3 2°52.27 12.3 348 15.8 101840 61
2003-09-26 07:37:27 51°17.32 2°52.25 12.8 346 15.8 101830 61
2003-09-26 07:37:31 51°17.33 2°52.23 12.4 347 15.8 101830 61
2003-09-26 07:37:35 51°17.34 2°52.22 12.4 346 15.8 101830 60
2003-09-26 07:37:41 51°17.35 2°52.19 12.2 346 15.8 101830 60
2003-09-26 07:37:47 51°17.37 2°52.17 12 346 15.7 101820 60
2003-09-26 07:37:51 51°17.38 2°52.15 11.7 344 15.7 101820 60
2003-09-26 07:37:57 51°17.4 2°52.13 11.8 345 15.7 101820 59
2003-09-26 07:38:01 51°17.41 2°52.11 11.7 349 15.7 101820 59
2003-09-26 07:38:07 51°17.42 2°52.09 12 349 15.7 101820 59
2003-09-26 07:38:11 51°17.43 2°52.07 13 347 15.7 101820 59
2003-09-26 07:38:17 51°17.45 2°52.05 12.9 345 15.7 101830 59
2003-09-26 07:38:21 51°17.46 2°52.04 12.6 347 15.7 101830 59
2003-09-26 07:38:27 51°17.48 2°52.01 12.8 348 15.8 101830 60
2003-09-26 07:38:31 51°17.49 2°52 13.3 347 15.8 101830 60
2003-09-26 07:38:35 51°17.5 2°51.98 12.8 347 15.8 101820 61
2003-09-26 07:38:41 51°17.52 2°51.96 14.2 349 15.8 101820 61
2003-09-26 07:38:45 51°17.53 2°51.94 13.3 346 15.8 101820 60
2003-09-26 07:38:51 51°17.54 2°51.92 12.9 345 15.8 101820 60
2003-09-26 07:38:55 51°17.55 2°51.9 13.1 344 15.8 101830 60
2003-09-26 07:39:01 51°17.57 2°51.88 12.1 342 15.8 101830 60
2003-09-26 07:39:07 51°17.58 2°51.86 12.1 343 15.8 101820 60
2003-09-26 07:39:11 51°17.6 2°51.84 11.8 340 15.8 101820 60
2003-09-26 07:39:15 51°17.61 2°51.83 12.1 342 15.7 101820 59
2003-09-26 07:39:21 51°17.62 2°51.8 12.4 339 15.7 101820 59
2003-09-26 07:39:25 51°17.63 2°51.79 11.4 346 15.7 101820 59
2003-09-26 07:39:31 51°17.65 2°51.76 11.4 346 15.7 101820 59
2003-09-26 07:39:37 51°17.66 2°51.74 11.7 351 15.7 101820 59
2003-09-26 07:39:41 51°17.67 2°51.73 11.5 346 15.7 101820 59
2003-09-26 07:39:47 51°17.69 2°51.7 12.2 347 15.7 101830 59
2003-09-26 07:39:51 51°17.7 2°51.69 12.9 348 15.7 101830 59
2003-09-26 07:39:55 51°17.71 2°51.67 13.2 350 15.8 101830 59
2003-09-26 07:40:01 51°17.73 2°51.65 13 348 15.8 101830 59
2003-09-26 07:40:07 51°17.74 2°51.62 12.8 347 15.8 101830 59
2003-09-26 07:40:11 51°17.75 2°51.61 11.6 349 15.8 101830 59
2003-09-26 07:40:15 51°17.77 2°51.59 12.5 351 15.8 101830 59
2003-09-26 07:40:21 51°17.78 2°51.57 13.1 350 15.8 101830 59
2003-09-26 07:40:27 51°17.8 2°51.55 12.7 350 15.8 101830 59
2003-09-26 07:40:31 51°17.81 2°51.53 12 342 15.8 101830 59
2003-09-26 07:40:35 51°17.82 2°51.52 12.2 344 15.8 101830 59
2003-09-26 07:40:41 51°17.84 2°51.5 12.5 347 15.8 101830 59
2003-09-26 07:40:47 51°17.85 2°51.47 11.6 345 15.8 101830 59
2003-09-26 07:40:51 51°17.87 2°51.46 12.3 345 15.8 101830 59
2003-09-26 07:40:57 51°17.88 2°51.44 12.6 346 15.8 101820 59
2003-09-26 07:41:01 51°17.9 2°51.43 13.5 346 15.8 101820 59
2003-09-26 07:41:07 51°17.91 2°51.4 13.6 347 15.8 101820 58
2003-09-26 07:41:11 51°17.92 2°51.39 12.3 340 15.8 101820 58
2003-09-26 07:41:17 51°17.94 2°51.37 13.1 342 15.8 101820 58
2003-09-26 07:41:21 51°17.95 2°51.35 12 345 15.8 101820 58
2003-09-26 07:41:27 51°17.97 2°51.33 12.2 345 15.8 101820 59
2003-09-26 07:41:31 51°17.98 2°51.32 12.4 344 15.8 101820 59
2003-09-26 07:41:37 51°18 2°51.3 11.6 345 15.8 101810 59
2003-09-26 07:41:41 51°18.01 2°51.29 12.2 348 15.8 101810 59
2003-09-26 07:41:47 51°18.03 2°51.27 12.3 346 15.8 101820 60
2003-09-26 07:41:51 51°18.04 2°51.25 12 349 15.8 101820 60
2003-09-26 07:41:55 51°18.05 2°51.24 11.7 344 15.8 101820 60
2003-09-26 07:42:01 51°18.07 2°51.22 12.2 346 15.8 101820 60
2003-09-26 07:42:07 51°18.09 2°51.2 12.3 342 15.8 101830 59
2003-09-26 07:42:11 51°18.1 2°51.19 13.2 342 15.8 101830 59
2003-09-26 07:42:15 51°18.11 2°51.17 12.4 343 15.8 101820 59
2003-09-26 07:42:21 51°18.13 2°51.15 12.4 338 15.8 101820 59
2003-09-26 07:42:27 51°18.15 2°51.13 12.5 341 15.8 101820 59
2003-09-26 07:42:31 51°18.16 2°51.12 11.1 333 15.8 101820 59
2003-09-26 07:42:35 51°18.17 2°51.11 11.7 335 15.9 101830 60
2003-09-26 07:42:41 51°18.19 2°51.09 10.6 339 15.9 101830 60
2003-09-26 07:42:47 51°18.21 2°51.07 11.5 340 15.9 101820 60
2003-09-26 07:42:51 51°18.22 2°51.06 11.3 336 15.9 101820 60
2003-09-26 07:42:55 51°18.23 2°51.05 10.5 333 15.9 101820 59
2003-09-26 07:43:01 51°18.25 2°51.04 10.2 334 15.9 101820 59
2003-09-26 07:43:07 51°18.26 2°51.03 10.5 331 15.8 101820 59
2003-09-26 07:43:11 51°18.27 2°51.02 9.2 331 15.8 101820 59
2003-09-26 07:43:15 51°18.28 2°51.01 9.2 325 15.8 101820 58
2003-09-26 07:43:21 51°18.3 2°51 8.2 328 15.8 101820 58
2003-09-26 07:43:27 51°18.31 2°50.99 8.6 325 15.8 101820 59
2003-09-26 07:43:31 51°18.32 2°50.98 9.4 322 15.8 101820 59
2003-09-26 07:43:35 51°18.33 2°50.98 9.1 323 15.8 101830 66
2003-09-26 07:43:41 51°18.34 2°50.97 8.7 315 15.8 101830 66
2003-09-26 07:43:47 51°18.36 2°50.96 8.7 314 15.8 101830 66
2003-09-26 07:43:51 51°18.37 2°50.96 9.1 320 15.8 101830 66
2003-09-26 07:43:55 51°18.37 2°50.96 8.8 315 15.8 101830 64
2003-09-26 07:44:01 51°18.38 2°50.95 8.3 318 15.8 101830 64
2003-09-26 07:44:07 51°18.39 2°50.95 9.2 316 15.8 101830 63
2003-09-26 07:44:11 51°18.4 2°50.95 8.4 311 15.8 101830 63
2003-09-26 07:44:15 51°18.41 2°50.95 7.7 307 15.8 101840 62
2003-09-26 07:44:21 51°18.42 2°50.94 7.6 304 15.8 101840 62
2003-09-26 07:44:27 51°18.42 2°50.94 7 299 15.9 101840 62
2003-09-26 07:44:31 51°18.43 2°50.94 6.3 297 15.9 101840 62
2003-09-26 07:44:35 51°18.43 2°50.94 6.4 294 15.9 101840 60
2003-09-26 07:44:41 51°18.44 2°50.94 5.9 284 15.9 101840 60
2003-09-26 07:44:47 51°18.45 2°50.95 5.9 279 15.8 101840 59
2003-09-26 07:44:51 51°18.45 2°50.95 5.7 274 15.8 101840 59
2003-09-26 07:44:55 51°18.45 2°50.95 6 270 15.8 101840 58
2003-09-26 07:45:01 51°18.46 2°50.95 5.4 265 15.8 101840 58
2003-09-26 07:45:05 51°18.46 2°50.96 4.5 259 15.8 101840 58
2003-09-26 07:45:11 51°18.46 2°50.96 3.7 256 15.8 101840 58
2003-09-26 07:45:17 51°18.47 2°50.96 3.1 252 15.8 101850 57
2003-09-26 07:45:21 51°18.47 2°50.97 3.8 255 15.8 101850 57
2003-09-26 07:45:27 51°18.47 2°50.97 3.3 257 15.8 101840 58
2003-09-26 07:45:31 51°18.47 2°50.98 3.4 256 15.8 101840 58
2003-09-26 07:45:35 51°18.48 2°50.98 3.7 258 15.8 101850 58
2003-09-26 07:45:41 51°18.48 2°50.99 5.1 260 15.8 101850 58
2003-09-26 07:45:47 51°18.48 2°50.99 5 263 15.8 101850 57
2003-09-26 07:45:51 51°18.48 2°50.99 4.7 262 15.8 101850 57
2003-09-26 07:45:55 51°18.48 2°51 3.4 257 15.8 101850 58
2003-09-26 07:46:01 51°18.49 2°51 5.4 264 15.8 101850 58
2003-09-26 07:46:07 51°18.49 2°51.01 5.4 264 15.8 101850 57
2003-09-26 07:46:11 51°18.49 2°51.01 4.3 255 15.8 101850 57
2003-09-26 07:46:17 51°18.49 2°51.01 3.5 254 15.8 101850 58
2003-09-26 07:46:21 51°18.49 2°51.01 4.1 253 15.8 101850 58
2003-09-26 07:46:27 51°18.49 2°51.01 5 259 15.8 101850 59
2003-09-26 07:46:31 51°18.49 2°51.01 4.2 257 15.8 101850 59
2003-09-26 07:46:35 51°18.49 2°51.01 5.2 258 15.8 101850 59
2003-09-26 07:46:41 51°18.49 2°51.01 5.2 257 15.8 101850 59
2003-09-26 07:46:47 51°18.49 2°51.01 4.7 257 15.8 101850 58
2003-09-26 07:46:51 51°18.49 2°51.01 6.2 262 15.8 101850 58
2003-09-26 07:46:55 51°18.49 2°51.01 6.3 268 15.8 101850 58
2003-09-26 07:47:01 51°18.49 2°51.01 5.3 264 15.8 101850 58
2003-09-26 07:47:07 51°18.49 2°51.01 5.5 269 15.8 101850 58
2003-09-26 07:47:11 51°18.49 2°51.01 6.1 271 15.8 101850 58
2003-09-26 07:47:17 51°18.49 2°51 5.9 270 15.8 101850 58
2003-09-26 07:47:21 51°18.49 2°51 5.3 262 15.8 101850 58
2003-09-26 07:47:27 51°18.49 2°51 4.9 257 15.9 101860 58
2003-09-26 07:47:31 51°18.49 2°51 6.1 264 15.9 101860 58
2003-09-26 07:47:37 51°18.49 2°51 6.9 269 15.9 101860 59
2003-09-26 07:47:41 51°18.49 2°51 5.3 271 15.9 101860 59
2003-09-26 07:47:47 51°18.49 2°51 6.1 270 15.9 101850 59
2003-09-26 07:47:51 51°18.49 2°50.99 4.4 275 15.9 101850 59
2003-09-26 07:47:57 51°18.49 2°50.99 7.3 276 15.9 101850 60
2003-09-26 07:48:01 51°18.49 2°50.99 6.1 272 15.9 101850 60
2003-09-26 07:48:07 51°18.49 2°50.99 6.5 276 15.9 101850 60
2003-09-26 07:48:11 51°18.49 2°50.99 6.9 267 15.9 101850 60
2003-09-26 07:48:17 51°18.49 2°50.99 6.2 270 15.9 101850 59
2003-09-26 07:48:21 51°18.49 2°50.98 5.8 273 15.9 101850 59
2003-09-26 07:48:27 51°18.48 2°50.98 6.9 272 15.9 101850 59
2003-09-26 07:48:31 51°18.48 2°50.98 7.1 271 15.9 101850 59
2003-09-26 07:48:37 51°18.48 2°50.98 7.1 278 15.9 101850 60
2003-09-26 07:48:41 51°18.48 2°50.98 6.7 269 15.9 101850 60
2003-09-26 07:48:47 51°18.48 2°50.98 6.7 274 16 101850 61
2003-09-26 07:48:51 51°18.48 2°50.98 7 272 16 101850 61
2003-09-26 07:48:55 51°18.48 2°50.97 7.8 269 16 101850 61
2003-09-26 07:49:01 51°18.48 2°50.97 7.3 273 16 101850 61
2003-09-26 07:49:07 51°18.48 2°50.97 6.9 271 16 101850 59
2003-09-26 07:49:11 51°18.48 2°50.97 6.2 278 16 101850 59
2003-09-26 07:49:17 51°18.48 2°50.97 6.5 269 15.9 101850 59
2003-09-26 07:49:21 51°18.48 2°50.96 6 279 15.9 101850 59
2003-09-26 07:49:27 51°18.48 2°50.96 6.5 290 16 101850 58
2003-09-26 07:49:31 51°18.48 2°50.96 6.4 281 16 101850 58
2003-09-26 07:49:35 51°18.48 2°50.96 7.4 289 15.9 101850 57
2003-09-26 07:49:41 51°18.47 2°50.96 6.5 284 15.9 101850 57
2003-09-26 07:49:47 51°18.47 2°50.96 6.5 279 15.9 101850 57
2003-09-26 07:49:51 51°18.47 2°50.95 7 277 15.9 101850 57
2003-09-26 07:49:55 51°18.47 2°50.95 6.3 278 15.9 101850 58
2003-09-26 07:50:01 51°18.47 2°50.95 6.8 272 15.9 101850 58
2003-09-26 07:50:07 51°18.47 2°50.95 6.4 271 16 101850 58
2003-09-26 07:50:11 51°18.47 2°50.95 5.9 277 16 101850 58
2003-09-26 07:50:15 51°18.47 2°50.95 6.5 271 15.9 101850 57
2003-09-26 07:50:21 51°18.47 2°50.94 6.3 272 15.9 101850 57
2003-09-26 07:50:27 51°18.47 2°50.94 6.8 268 15.9 101850 56
2003-09-26 07:50:31 51°18.46 2°50.94 5.6 269 15.9 101850 56
2003-09-26 07:50:35 51°18.46 2°50.94 7 271 15.9 101850 56
2003-09-26 07:50:41 51°18.46 2°50.94 7 273 15.9 101850 56
2003-09-26 07:50:47 51°18.46 2°50.94 7.1 273 15.9 101850 57
2003-09-26 07:50:51 51°18.46 2°50.93 7.3 268 15.9 101850 57
2003-09-26 07:50:55 51°18.46 2°50.93 7.5 274 15.9 101860 58
2003-09-26 07:51:01 51°18.46 2°50.93 7.2 273 15.9 101860 58
2003-09-26 07:51:07 51°18.46 2°50.93 7.2 274 15.9 101850 58
2003-09-26 07:51:11 51°18.46 2°50.93 6.7 274 15.9 101850 58
2003-09-26 07:51:17 51°18.46 2°50.93 6.7 279 15.9 101850 57
2003-09-26 07:51:21 51°18.46 2°50.93 6.5 279 15.9 101850 57
2003-09-26 07:51:27 51°18.47 2°50.93 5.9 281 15.9 101850 56
2003-09-26 07:51:31 51°18.47 2°50.93 6.8 289 15.9 101850 56
2003-09-26 07:51:35 51°18.47 2°50.93 6.5 291 15.9 101850 56
2003-09-26 07:51:41 51°18.48 2°50.93 6.8 296 15.9 101850 56
2003-09-26 07:51:47 51°18.49 2°50.94 7.1 302 15.9 101860 55
2003-09-26 07:51:51 51°18.5 2°50.94 6.5 313 15.9 101860 55
2003-09-26 07:51:55 51°18.5 2°50.94 6.9 308 15.9 101850 57
2003-09-26 07:52:01 51°18.51 2°50.95 6.9 306 15.9 101850 57
2003-09-26 07:52:07 51°18.52 2°50.96 6.5 305 15.9 101850 58
2003-09-26 07:52:11 51°18.53 2°50.97 7.6 307 15.9 101850 58
2003-09-26 07:52:15 51°18.54 2°50.98 6.9 306 15.9 101840 57
2003-09-26 07:52:21 51°18.55 2°50.99 6.4 308 15.9 101840 57
2003-09-26 07:52:27 51°18.56 2°51.01 6.1 313 15.9 101850 56
2003-09-26 07:52:31 51°18.57 2°51.02 7.2 310 15.9 101850 56
2003-09-26 07:52:35 51°18.58 2°51.03 7.5 313 15.9 101840 56
2003-09-26 07:52:41 51°18.59 2°51.05 7.2 311 15.9 101840 56
2003-09-26 07:52:47 51°18.61 2°51.06 7.4 313 15.9 101850 55
2003-09-26 07:52:51 51°18.62 2°51.08 6.7 316 15.9 101850 55
2003-09-26 07:52:57 51°18.63 2°51.09 6.6 227 15.9 101850 56
2003-09-26 07:53:01 51°18.64 2°51.11 6.6 310 15.9 101850 56
2003-09-26 07:53:07 51°18.66 2°51.13 6.4 311 15.9 101850 55
2003-09-26 07:53:11 51°18.66 2°51.14 5.4 226 15.9 101850 55
2003-09-26 07:53:15 51°18.67 2°51.16 5.2 227 15.9 101840 55
2003-09-26 07:53:21 51°18.68 2°51.18 4.8 314 15.9 101840 55
2003-09-26 07:53:27 51°18.69 2°51.21 4.3 317 15.9 101850 54
2003-09-26 07:53:31 51°18.7 2°51.23 4.4 313 15.9 101850 54
2003-09-26 07:53:37 51°18.71 2°51.25 3.7 323 15.9 101850 54
2003-09-26 07:53:41 51°18.71 2°51.27 3.9 317 15.9 101850 54
2003-09-26 07:53:47 51°18.72 2°51.3 3.9 319 15.9 101850 54
2003-09-26 07:53:51 51°18.73 2°51.32 3.8 318 15.9 101850 54
2003-09-26 07:53:57 51°18.74 2°51.35 4 321 15.9 101860 54
2003-09-26 07:54:01 51°18.74 2°51.37 3.8 315 15.9 101860 54
2003-09-26 07:54:07 51°18.75 2°51.39 3.9 324 15.9 101860 55
2003-09-26 07:54:11 51°18.76 2°51.41 3.9 325 15.9 101860 55
2003-09-26 07:54:15 51°18.76 2°51.43 4 39 15.9 101850 54
2003-09-26 07:54:21 51°18.77 2°51.46 4 228 15.9 101850 54
2003-09-26 07:54:27 51°18.78 2°51.49 3.6 327 15.9 101860 54
2003-09-26 07:54:31 51°18.79 2°51.51 4.2 320 15.9 101860 54
2003-09-26 07:54:35 51°18.79 2°51.52 3.6 323 15.9 101860 54
2003-09-26 07:54:41 51°18.8 2°51.55 3.6 312 15.9 101860 54
2003-09-26 07:54:47 51°18.81 2°51.58 4.1 312 15.9 101850 54
2003-09-26 07:54:51 51°18.82 2°51.6 4.3 309 15.9 101850 54
2003-09-26 07:54:55 51°18.82 2°51.62 4.7 307 16 101860 55
2003-09-26 07:55:01 51°18.83 2°51.64 4.4 301 16 101860 55
2003-09-26 07:55:07 51°18.84 2°51.67 4.9 306 16 101860 56
2003-09-26 07:55:11 51°18.85 2°51.69 4 300 16 101860 56
2003-09-26 07:55:17 51°18.86 2°51.72 4 307 16 101860 56
2003-09-26 07:55:21 51°18.87 2°51.74 3.8 308 16 101860 56
2003-09-26 07:55:27 51°18.88 2°51.76 3.8 304 16 101860 56
2003-09-26 07:55:31 51°18.88 2°51.78 4.4 314 16 101860 56
2003-09-26 07:55:35 51°18.89 2°51.8 4.1 310 16 101850 56
2003-09-26 07:55:41 51°18.9 2°51.83 5.1 313 16 101850 56
2003-09-26 07:55:47 51°18.91 2°51.86 4.2 309 16.1 101850 56
2003-09-26 07:55:51 51°18.91 2°51.87 4.3 307 16.1 101850 56
2003-09-26 07:55:55 51°18.92 2°51.89 3.9 307 16.1 101850 56
2003-09-26 07:56:01 51°18.93 2°51.92 4.2 314 16.1 101850 56
2003-09-26 07:56:07 51°18.94 2°51.95 3.9 310 16.1 101850 56
2003-09-26 07:56:11 51°18.95 2°51.97 3.7 311 16.1 101850 56
2003-09-26 07:56:15 51°18.95 2°51.99 4.3 311 16.1 101860 56
2003-09-26 07:56:21 51°18.96 2°52.01 4.2 316 16.1 101860 56
2003-09-26 07:56:27 51°18.97 2°52.04 5.6 317 16.1 101860 55
2003-09-26 07:56:31 51°18.98 2°52.06 5 313 16.1 101860 55
2003-09-26 07:56:35 51°18.99 2°52.08 5.1 313 16.1 101860 56
2003-09-26 07:56:41 51°19 2°52.1 5.2 317 16.1 101860 56
2003-09-26 07:56:47 51°19.01 2°52.13 5.4 314 16.1 101850 56
2003-09-26 07:56:51 51°19.01 2°52.15 5.2 43 16.1 101850 56
2003-09-26 07:56:55 51°19.02 2°52.17 4.7 315 16.1 101850 57
2003-09-26 07:57:01 51°19.03 2°52.19 4.6 228 16.1 101850 57
2003-09-26 07:57:07 51°19.04 2°52.22 4.5 227 16.1 101850 57
2003-09-26 07:57:11 51°19.05 2°52.24 4.8 315 16.1 101850 57
2003-09-26 07:57:15 51°19.05 2°52.26 5 37 16.1 101850 56
2003-09-26 07:57:21 51°19.06 2°52.29 5.2 313 16.1 101850 56
2003-09-26 07:57:27 51°19.07 2°52.31 5.6 318 16.1 101860 55
2003-09-26 07:57:31 51°19.08 2°52.33 6 42 16.1 101860 55
2003-09-26 07:57:37 51°19.09 2°52.36 6.2 313 16.1 101860 55
2003-09-26 07:57:41 51°19.1 2°52.38 6.4 316 16.1 101860 55
2003-09-26 07:57:47 51°19.11 2°52.4 6.2 44 16.1 101850 57
2003-09-26 07:57:51 51°19.11 2°52.42 6.6 315 16.1 101850 57
2003-09-26 07:57:55 51°19.12 2°52.44 6.7 315 16.2 101850 57
2003-09-26 07:58:01 51°19.13 2°52.47 6.1 320 16.2 101850 57
2003-09-26 07:58:07 51°19.14 2°52.5 6 314 16.2 101850 56
2003-09-26 07:58:11 51°19.14 2°52.51 5.5 311 16.2 101850 56
2003-09-26 07:58:15 51°19.15 2°52.53 5.4 44 16.2 101850 57
2003-09-26 07:58:21 51°19.15 2°52.56 5.7 313 16.2 101850 57
2003-09-26 07:58:27 51°19.16 2°52.59 6.3 309 16.1 101850 56
2003-09-26 07:58:31 51°19.17 2°52.61 5.7 309 16.1 101850 56
2003-09-26 07:58:37 51°19.17 2°52.64 5.7 307 16.1 101850 55
2003-09-26 07:58:41 51°19.18 2°52.66 5 305 16.1 101850 55
2003-09-26 07:58:47 51°19.18 2°52.69 5.1 305 16.1 101850 55
2003-09-26 07:58:51 51°19.19 2°52.71 5 308 16.1 101850 55
2003-09-26 07:58:57 51°19.19 2°52.74 5 303 16.1 101850 55
2003-09-26 07:59:01 51°19.2 2°52.76 4.7 305 16.1 101850 55
2003-09-26 07:59:07 51°19.2 2°52.79 4.8 305 16.1 101850 55
2003-09-26 07:59:11 51°19.21 2°52.81 4.8 303 16.1 101850 55
2003-09-26 07:59:15 51°19.21 2°52.83 4.6 306 16.1 101850 55
2003-09-26 07:59:21 51°19.22 2°52.85 4.6 305 16.1 101850 55
2003-09-26 07:59:27 51°19.23 2°52.88 4.4 306 16.1 101850 55
2003-09-26 07:59:31 51°19.23 2°52.9 4.4 314 16.1 101850 55
2003-09-26 07:59:35 51°19.24 2°52.92 4.1 306 16.1 101850 55
2003-09-26 07:59:41 51°19.24 2°52.95 3.7 313 16.1 101850 55
2003-09-26 07:59:47 51°19.25 2°52.98 3.7 312 16.1 101850 55
2003-09-26 07:59:51 51°19.26 2°53 3.7 305 16.1 101850 55
2003-09-26 07:59:55 51°19.26 2°53.02 3.4 308 16.1 101850 55
2003-09-26 08:00:01 51°19.27 2°53.05 3.3 308 16.1 101850 55
2003-09-26 08:00:07 51°19.27 2°53.08 3.2 308 16.1 101850 54
2003-09-26 08:00:11 51°19.28 2°53.1 3 42 16.1 101850 54
2003-09-26 08:00:15 51°19.28 2°53.12 3.4 312 16.1 101860 55
2003-09-26 08:00:21 51°19.29 2°53.15 4 307 16.1 101860 55
2003-09-26 08:00:27 51°19.29 2°53.18 3.9 307 16.1 101850 54
2003-09-26 08:00:31 51°19.3 2°53.2 4 303 16.1 101850 54
2003-09-26 08:00:35 51°19.3 2°53.22 4 310 16.1 101860 55
2003-09-26 08:00:41 51°19.31 2°53.25 4 312 16.1 101860 55
2003-09-26 08:00:47 51°19.32 2°53.27 3.7 305 16.2 101860 55
2003-09-26 08:00:51 51°19.32 2°53.29 4.8 36 16.2 101860 55
2003-09-26 08:00:55 51°19.33 2°53.31 4.2 311 16.2 101860 56
2003-09-26 08:01:01 51°19.33 2°53.34 4.9 43 16.2 101860 56
2003-09-26 08:01:07 51°19.34 2°53.37 5.2 302 16.2 101860 56
2003-09-26 08:01:11 51°19.35 2°53.39 4.2 301 16.2 101860 56
2003-09-26 08:01:15 51°19.35 2°53.41 4.3 304 16.2 101860 56
2003-09-26 08:01:21 51°19.36 2°53.44 3.8 309 16.2 101860 56
2003-09-26 08:01:27 51°19.36 2°53.47 3.9 307 16.2 101860 57
2003-09-26 08:01:31 51°19.37 2°53.49 4.6 311 16.2 101860 57
2003-09-26 08:01:35 51°19.38 2°53.51 4.8 311 16.2 101860 56
2003-09-26 08:01:41 51°19.38 2°53.54 3.8 227 16.2 101860 56
2003-09-26 08:01:47 51°19.39 2°53.57 3.3 43 16.2 101860 56
2003-09-26 08:01:51 51°19.39 2°53.59 4.1 322 16.2 101860 56
2003-09-26 08:01:57 51°19.4 2°53.61 4.3 315 16.2 101860 55
2003-09-26 08:02:01 51°19.41 2°53.63 4.6 309 16.2 101860 55
2003-09-26 08:02:07 51°19.41 2°53.66 5 309 16.2 101860 54
2003-09-26 08:02:11 51°19.42 2°53.68 4.3 310 16.2 101860 54
2003-09-26 08:02:17 51°19.42 2°53.71 4.6 311 16.2 101850 54
2003-09-26 08:02:21 51°19.43 2°53.73 4.3 228 16.2 101850 54
2003-09-26 08:02:27 51°19.44 2°53.76 4.5 311 16.2 101850 55
2003-09-26 08:02:31 51°19.44 2°53.78 4.4 312 16.2 101850 55
2003-09-26 08:02:37 51°19.45 2°53.81 4.9 312 16.2 101850 55
2003-09-26 08:02:41 51°19.45 2°53.83 4.5 301 16.2 101850 55
2003-09-26 08:02:47 51°19.46 2°53.86 4.6 301 16.2 101850 54
2003-09-26 08:02:51 51°19.46 2°53.88 4.1 301 16.2 101850 54
2003-09-26 08:02:57 51°19.47 2°53.91 4 302 16.2 101850 55
2003-09-26 08:03:01 51°19.47 2°53.93 4.3 307 16.2 101850 55
2003-09-26 08:03:07 51°19.48 2°53.96 4.1 308 16.2 101860 55
2003-09-26 08:03:11 51°19.48 2°53.97 4.1 304 16.2 101860 55
2003-09-26 08:03:15 51°19.49 2°53.99 3.9 307 16.2 101850 55
2003-09-26 08:03:21 51°19.5 2°54.02 4.7 311 16.2 101850 55
2003-09-26 08:03:27 51°19.5 2°54.05 4.3 42 16.3 101850 55
2003-09-26 08:03:31 51°19.51 2°54.07 4.6 309 16.3 101850 55
2003-09-26 08:03:35 51°19.51 2°54.09 4.1 307 16.2 101860 54
2003-09-26 08:03:41 51°19.52 2°54.12 4.6 308 16.2 101860 54
2003-09-26 08:03:47 51°19.53 2°54.15 4.7 309 16.2 101860 55
2003-09-26 08:03:51 51°19.53 2°54.17 5.1 314 16.2 101860 55
2003-09-26 08:03:57 51°19.54 2°54.2 5.1 303 16.2 101860 54
2003-09-26 08:04:01 51°19.54 2°54.22 4.2 306 16.2 101860 54
2003-09-26 08:04:07 51°19.55 2°54.24 4.1 297 16.2 101860 54
2003-09-26 08:04:11 51°19.56 2°54.26 3.9 301 16.2 101860 54
2003-09-26 08:04:15 51°19.56 2°54.28 3.5 307 16.2 101860 55
2003-09-26 08:04:21 51°19.57 2°54.31 3.8 302 16.2 101860 55
2003-09-26 08:04:27 51°19.58 2°54.34 3.8 299 16.3 101860 55
2003-09-26 08:04:31 51°19.58 2°54.36 3.5 304 16.3 101860 55
2003-09-26 08:04:35 51°19.59 2°54.38 3.7 303 16.2 101850 54
2003-09-26 08:04:41 51°19.59 2°54.41 3.1 300 16.2 101850 54
2003-09-26 08:04:47 51°19.6 2°54.44 3.4 300 16.2 101860 54
2003-09-26 08:04:51 51°19.6 2°54.46 3.2 297 16.2 101860 54
2003-09-26 08:04:57 51°19.61 2°54.49 2.9 302 16.3 101860 54
2003-09-26 08:05:01 51°19.62 2°54.51 2.5 300 16.3 101860 54
2003-09-26 08:05:07 51°19.62 2°54.54 2.9 310 16.3 101850 55
2003-09-26 08:05:11 51°19.63 2°54.56 2.9 302 16.3 101850 55
2003-09-26 08:05:15 51°19.63 2°54.58 2.3 303 16.3 101850 54
2003-09-26 08:05:21 51°19.64 2°54.61 2.2 297 16.3 101850 54
2003-09-26 08:05:27 51°19.65 2°54.63 2.4 305 16.3 101850 54
2003-09-26 08:05:31 51°19.65 2°54.65 2.9 327 16.3 101850 54
2003-09-26 08:05:37 51°19.66 2°54.68 3.1 39 16.3 101860 54
2003-09-26 08:05:41 51°19.66 2°54.7 1.9 307 16.3 101860 54
2003-09-26 08:05:47 51°19.67 2°54.73 2.9 315 16.3 101860 55
2003-09-26 08:05:51 51°19.68 2°54.75 3.4 228 16.3 101860 55
2003-09-26 08:05:55 51°19.68 2°54.77 2.9 227 16.3 101860 55
2003-09-26 08:06:01 51°19.69 2°54.8 3.5 324 16.3 101860 55
2003-09-26 08:06:07 51°19.7 2°54.83 3.9 321 16.3 101860 54
2003-09-26 08:06:11 51°19.7 2°54.85 3.6 315 16.3 101860 54
2003-09-26 08:06:17 51°19.71 2°54.88 3.5 311 16.3 101850 54
2003-09-26 08:06:21 51°19.71 2°54.9 2.7 316 16.3 101850 54
2003-09-26 08:06:27 51°19.72 2°54.93 2.8 43 16.3 101860 55
2003-09-26 08:06:31 51°19.72 2°54.95 2.9 314 16.3 101860 55
2003-09-26 08:06:35 51°19.72 2°54.97 2.5 314 16.4 101850 56
2003-09-26 08:06:41 51°19.73 2°55 3.6 316 16.4 101850 56
2003-09-26 08:06:47 51°19.73 2°55.03 4.1 314 16.4 101850 56
2003-09-26 08:06:51 51°19.74 2°55.05 4.3 322 16.4 101850 56
2003-09-26 08:06:55 51°19.74 2°55.07 4 41 16.4 101850 55
2003-09-26 08:07:01 51°19.74 2°55.1 4.5 306 16.4 101850 55
2003-09-26 08:07:07 51°19.75 2°55.13 4.5 306 16.4 101860 56
2003-09-26 08:07:11 51°19.75 2°55.15 4.3 311 16.4 101860 56
2003-09-26 08:07:17 51°19.76 2°55.19 4.5 307 16.4 101850 57
2003-09-26 08:07:21 51°19.76 2°55.21 4.3 300 16.4 101850 57
2003-09-26 08:07:27 51°19.77 2°55.24 4.8 303 16.4 101850 56
2003-09-26 08:07:31 51°19.77 2°55.26 4.7 301 16.4 101850 56
2003-09-26 08:07:37 51°19.77 2°55.29 4.7 302 16.4 101850 55
2003-09-26 08:07:41 51°19.78 2°55.31 4.6 305 16.4 101850 55
2003-09-26 08:07:47 51°19.78 2°55.34 4.2 301 16.4 101850 55
2003-09-26 08:07:51 51°19.79 2°55.36 4.2 306 16.4 101850 55
2003-09-26 08:07:57 51°19.79 2°55.39 3.8 306 16.4 101850 55
2003-09-26 08:08:01 51°19.8 2°55.41 3.6 310 16.4 101850 55
2003-09-26 08:08:07 51°19.8 2°55.44 3.7 309 16.4 101850 54
2003-09-26 08:08:11 51°19.8 2°55.46 3.4 310 16.4 101850 54
2003-09-26 08:08:15 51°19.81 2°55.48 3.4 313 16.4 101850 54
2003-09-26 08:08:21 51°19.81 2°55.51 3.1 315 16.4 101850 54
2003-09-26 08:08:27 51°19.82 2°55.54 3.4 227 16.4 101850 54
2003-09-26 08:08:31 51°19.82 2°55.56 2.8 43 16.4 101850 54
2003-09-26 08:08:37 51°19.83 2°55.59 2.9 228 16.4 101850 54
2003-09-26 08:08:41 51°19.83 2°55.61 2.7 316 16.4 101850 54
2003-09-26 08:08:47 51°19.84 2°55.64 2.5 43 16.4 101850 54
2003-09-26 08:08:51 51°19.84 2°55.66 2.7 315 16.4 101850 54
2003-09-26 08:08:55 51°19.84 2°55.68 2.7 313 16.4 101850 54
2003-09-26 08:09:01 51°19.85 2°55.71 2.7 227 16.4 101850 54
2003-09-26 08:09:07 51°19.85 2°55.74 3 312 16.4 101850 53
2003-09-26 08:09:11 51°19.86 2°55.76 2.6 306 16.4 101850 53
2003-09-26 08:09:17 51°19.86 2°55.79 2.6 306 16.4 101850 53
2003-09-26 08:09:21 51°19.87 2°55.81 2.2 307 16.4 101850 53
2003-09-26 08:09:27 51°19.87 2°55.84 2.4 308 16.4 101850 54
2003-09-26 08:09:31 51°19.88 2°55.86 3.6 318 16.4 101850 54
2003-09-26 08:09:35 51°19.88 2°55.88 3.8 305 16.4 101850 54
2003-09-26 08:09:41 51°19.88 2°55.91 3.2 308 16.4 101850 54
2003-09-26 08:09:47 51°19.89 2°55.94 3.6 311 16.4 101850 54
2003-09-26 08:09:51 51°19.89 2°55.96 3.7 307 16.4 101850 54
2003-09-26 08:09:55 51°19.9 2°55.98 3.7 311 16.4 101850 54
2003-09-26 08:10:01 51°19.9 2°56.01 4.7 311 16.4 101850 54
2003-09-26 08:10:07 51°19.91 2°56.04 4.7 310 16.5 101850 55
2003-09-26 08:10:11 51°19.91 2°56.06 4.3 308 16.5 101850 55
2003-09-26 08:10:15 51°19.92 2°56.08 4.2 309 16.5 101850 56
2003-09-26 08:10:21 51°19.92 2°56.12 4.1 301 16.5 101850 56
2003-09-26 08:10:27 51°19.93 2°56.15 3.8 305 16.5 101850 57
2003-09-26 08:10:31 51°19.93 2°56.17 4.1 42 16.5 101850 57
2003-09-26 08:10:35 51°19.93 2°56.19 4.5 314 16.5 101850 56
2003-09-26 08:10:41 51°19.94 2°56.22 4.3 312 16.5 101850 56
2003-09-26 08:10:47 51°19.94 2°56.25 4.4 229 16.5 101840 55
2003-09-26 08:10:51 51°19.95 2°56.27 3.6 314 16.5 101840 55
2003-09-26 08:10:57 51°19.95 2°56.3 3.9 307 16.5 101850 55
2003-09-26 08:11:01 51°19.96 2°56.32 3.7 311 16.5 101850 55
2003-09-26 08:11:07 51°19.96 2°56.35 3.9 311 16.5 101850 54
2003-09-26 08:11:11 51°19.97 2°56.37 3.8 310 16.5 101850 54
2003-09-26 08:11:15 51°19.97 2°56.39 3.5 226 16.5 101850 55
2003-09-26 08:11:21 51°19.98 2°56.42 4.6 318 16.5 101850 55
2003-09-26 08:11:27 51°19.98 2°56.45 4.2 310 16.5 101850 54
2003-09-26 08:11:31 51°19.98 2°56.47 3.8 304 16.5 101850 54
2003-09-26 08:11:35 51°19.99 2°56.49 3.7 310 16.5 101850 54
2003-09-26 08:11:41 51°19.99 2°56.52 3.5 314 16.5 101850 54
2003-09-26 08:11:47 51°20 2°56.55 3.6 317 16.5 101850 54
2003-09-26 08:11:51 51°20 2°56.57 3.5 314 16.5 101850 54
2003-09-26 08:11:55 51°20 2°56.59 3.5 315 16.5 101850 54
2003-09-26 08:12:01 51°20.01 2°56.62 3.3 324 16.5 101850 54
2003-09-26 08:12:07 51°20.01 2°56.65 3.6 328 16.4 101850 53
2003-09-26 08:12:11 51°20.02 2°56.67 3.4 315 16.4 101850 53
2003-09-26 08:12:15 51°20.02 2°56.69 3.4 43 16.5 101850 54
2003-09-26 08:12:21 51°20.03 2°56.72 3.3 227 16.5 101850 54
2003-09-26 08:12:27 51°20.03 2°56.75 3.3 315 16.5 101850 54
2003-09-26 08:12:31 51°20.04 2°56.77 3.8 318 16.5 101850 54
2003-09-26 08:12:35 51°20.04 2°56.8 4 43 16.5 101850 54
2003-09-26 08:12:41 51°20.05 2°56.83 4.5 318 16.5 101850 54
2003-09-26 08:12:47 51°20.05 2°56.86 3.9 321 16.4 101850 53
2003-09-26 08:12:51 51°20.06 2°56.88 3.5 226 16.4 101850 53
2003-09-26 08:12:55 51°20.06 2°56.9 3.4 322 16.5 101850 53
2003-09-26 08:13:01 51°20.07 2°56.93 3.3 327 16.5 101850 53
2003-09-26 08:13:07 51°20.07 2°56.96 3.4 317 16.5 101850 53
2003-09-26 08:13:11 51°20.08 2°56.98 3.6 321 16.5 101850 53
2003-09-26 08:13:15 51°20.08 2°57 3.7 229 16.4 101850 53
2003-09-26 08:13:21 51°20.09 2°57.03 3.8 313 16.4 101850 53
2003-09-26 08:13:27 51°20.09 2°57.06 3.9 42 16.4 101850 53
2003-09-26 08:13:31 51°20.1 2°57.08 3.6 313 16.4 101850 53
2003-09-26 08:13:35 51°20.1 2°57.1 3.2 227 16.5 101850 53
2003-09-26 08:13:41 51°20.11 2°57.13 3.4 227 16.5 101850 53
2003-09-26 08:13:47 51°20.11 2°57.16 3.5 43 16.5 101850 53
2003-09-26 08:13:51 51°20.12 2°57.18 3.5 44 16.5 101850 53
2003-09-26 08:13:55 51°20.12 2°57.2 3.1 315 16.5 101850 53
2003-09-26 08:14:01 51°20.13 2°57.23 3 314 16.5 101850 53
2003-09-26 08:14:07 51°20.13 2°57.26 3.2 311 16.4 101850 52
2003-09-26 08:14:11 51°20.14 2°57.28 2.6 42 16.4 101850 52
2003-09-26 08:14:15 51°20.14 2°57.3 2.9 317 16.5 101850 53
2003-09-26 08:14:21 51°20.15 2°57.34 3 43 16.5 101850 53
2003-09-26 08:14:27 51°20.15 2°57.37 3 321 16.5 101850 53
2003-09-26 08:14:31 51°20.15 2°57.39 3.5 319 16.5 101850 53
2003-09-26 08:14:37 51°20.16 2°57.42 3.5 315 16.5 101850 53
2003-09-26 08:14:41 51°20.16 2°57.44 3 227 16.5 101850 53
2003-09-26 08:14:47 51°20.17 2°57.47 3.1 315 16.5 101850 53
2003-09-26 08:14:51 51°20.17 2°57.49 3 319 16.5 101850 53
2003-09-26 08:14:55 51°20.18 2°57.51 3.5 333 16.5 101850 54
2003-09-26 08:15:01 51°20.18 2°57.54 3.2 316 16.5 101850 54
2003-09-26 08:15:07 51°20.19 2°57.57 3.1 318 16.5 101850 53
2003-09-26 08:15:11 51°20.19 2°57.59 3 227 16.5 101850 53
2003-09-26 08:15:15 51°20.2 2°57.61 2.9 316 16.5 101850 53
2003-09-26 08:15:21 51°20.2 2°57.64 2.7 316 16.5 101850 53
2003-09-26 08:15:27 51°20.21 2°57.67 2.5 318 16.5 101850 52
2003-09-26 08:15:31 51°20.21 2°57.69 2.6 313 16.5 101850 52
2003-09-26 08:15:37 51°20.22 2°57.72 2.2 316 16.5 101850 52
2003-09-26 08:15:41 51°20.22 2°57.74 2.8 310 16.5 101850 52
2003-09-26 08:15:47 51°20.22 2°57.77 2.4 316 16.5 101850 52
2003-09-26 08:15:51 51°20.23 2°57.8 2.3 320 16.5 101850 52
2003-09-26 08:15:57 51°20.23 2°57.83 2.2 319 16.5 101850 51
2003-09-26 08:16:01 51°20.24 2°57.85 2.1 318 16.5 101850 51
2003-09-26 08:16:07 51°20.24 2°57.88 2 42 16.5 101850 51
2003-09-26 08:16:11 51°20.24 2°57.9 1.9 323 16.5 101850 51
2003-09-26 08:16:15 51°20.25 2°57.92 1.9 324 16.5 101850 51
2003-09-26 08:16:21 51°20.25 2°57.95 2.1 331 16.5 101850 51
2003-09-26 08:16:27 51°20.26 2°57.98 2.2 329 16.5 101850 51
2003-09-26 08:16:31 51°20.26 2°58 1.7 333 16.5 101850 51
2003-09-26 08:16:35 51°20.27 2°58.02 1.6 336 16.5 101850 51
2003-09-26 08:16:41 51°20.27 2°58.05 2.6 313 16.5 101850 51
2003-09-26 08:16:47 51°20.28 2°58.08 2.4 314 16.5 101850 51
2003-09-26 08:16:51 51°20.28 2°58.1 2.1 327 16.5 101850 51
2003-09-26 08:16:55 51°20.29 2°58.12 2 320 16.5 101850 51
2003-09-26 08:17:01 51°20.29 2°58.15 1.6 319 16.5 101850 51
2003-09-26 08:17:07 51°20.3 2°58.18 1.8 319 16.5 101850 53
2003-09-26 08:17:11 51°20.3 2°58.2 2.1 311 16.5 101850 53
2003-09-26 08:17:17 51°20.31 2°58.23 2.6 329 16.6 101860 53
2003-09-26 08:17:21 51°20.31 2°58.25 2.2 324 16.6 101860 53
2003-09-26 08:17:27 51°20.31 2°58.28 2.9 319 16.6 101850 53
2003-09-26 08:17:31 51°20.32 2°58.3 2.5 327 16.6 101850 53
2003-09-26 08:17:37 51°20.32 2°58.33 2.7 323 16.6 101850 53
2003-09-26 08:17:41 51°20.33 2°58.35 3.5 309 16.6 101850 53
2003-09-26 08:17:47 51°20.33 2°58.39 3.2 307 16.6 101850 53
2003-09-26 08:17:51 51°20.34 2°58.41 3.3 315 16.6 101850 53
2003-09-26 08:17:55 51°20.34 2°58.43 3.4 313 16.6 101850 53
2003-09-26 08:18:01 51°20.35 2°58.46 3.2 312 16.6 101850 53
2003-09-26 08:18:07 51°20.35 2°58.49 3.2 306 16.6 101850 53
2003-09-26 08:18:11 51°20.36 2°58.51 3.4 307 16.6 101850 53
2003-09-26 08:18:17 51°20.36 2°58.54 2.9 305 16.6 101850 53
2003-09-26 08:18:21 51°20.37 2°58.56 3.1 314 16.6 101850 53
2003-09-26 08:18:27 51°20.37 2°58.59 2.8 324 16.7 101850 53
2003-09-26 08:18:31 51°20.38 2°58.61 2.8 304 16.7 101850 53
2003-09-26 08:18:35 51°20.38 2°58.63 2.6 303 16.6 101850 52
2003-09-26 08:18:41 51°20.39 2°58.66 2.4 299 16.6 101850 52
2003-09-26 08:18:47 51°20.39 2°58.69 2.1 300 16.6 101850 52
2003-09-26 08:18:51 51°20.39 2°58.71 2.3 304 16.6 101850 52
2003-09-26 08:18:57 51°20.4 2°58.74 2.3 301 16.6 101850 52
2003-09-26 08:19:01 51°20.4 2°58.76 2 309 16.6 101850 52
2003-09-26 08:19:07 51°20.41 2°58.79 1.9 309 16.6 101860 51
2003-09-26 08:19:11 51°20.41 2°58.81 2 315 16.6 101860 51
2003-09-26 08:19:15 51°20.42 2°58.83 1.8 228 16.6 101850 52
2003-09-26 08:19:21 51°20.42 2°58.86 1.8 325 16.6 101850 52
2003-09-26 08:19:27 51°20.43 2°58.89 1.8 329 16.6 101850 52
2003-09-26 08:19:31 51°20.43 2°58.91 2.2 310 16.6 101850 52
2003-09-26 08:19:37 51°20.44 2°58.95 2.1 310 16.6 101860 51
2003-09-26 08:19:41 51°20.44 2°58.97 2 298 16.6 101860 51
2003-09-26 08:19:47 51°20.45 2°59 2.1 307 16.7 101850 52
2003-09-26 08:19:51 51°20.45 2°59.02 1.7 294 16.7 101850 52
2003-09-26 08:19:57 51°20.45 2°59.05 1.6 299 16.7 101850 53
2003-09-26 08:20:01 51°20.46 2°59.07 1.9 318 16.7 101850 53
2003-09-26 08:20:07 51°20.46 2°59.1 2.1 320 16.7 101850 53
2003-09-26 08:20:11 51°20.47 2°59.12 2.3 316 16.7 101850 53
2003-09-26 08:20:15 51°20.47 2°59.14 2.4 310 16.7 101850 52
2003-09-26 08:20:21 51°20.48 2°59.17 2.5 298 16.7 101850 52
2003-09-26 08:20:27 51°20.48 2°59.2 2.1 299 16.7 101860 52
2003-09-26 08:20:31 51°20.49 2°59.22 1.5 320 16.7 101860 52
2003-09-26 08:20:37 51°20.49 2°59.25 1.5 322 16.7 101850 52
2003-09-26 08:20:41 51°20.5 2°59.27 1.5 312 16.7 101850 52
2003-09-26 08:20:47 51°20.5 2°59.3 2 309 16.7 101850 52
2003-09-26 08:20:51 51°20.51 2°59.32 1.9 327 16.7 101850 52
2003-09-26 08:20:55 51°20.51 2°59.34 1.8 331 16.7 101850 52
2003-09-26 08:21:01 51°20.51 2°59.37 2 326 16.7 101850 52
2003-09-26 08:21:07 51°20.52 2°59.41 2.3 334 16.7 101850 52
2003-09-26 08:21:11 51°20.52 2°59.43 2 335 16.7 101850 52
2003-09-26 08:21:15 51°20.53 2°59.45 1.9 325 16.8 101850 53
2003-09-26 08:21:21 51°20.53 2°59.48 2.9 309 16.8 101850 53
2003-09-26 08:21:27 51°20.54 2°59.51 2.9 320 16.8 101850 53
2003-09-26 08:21:31 51°20.54 2°59.53 2.9 322 16.8 101850 53
2003-09-26 08:21:35 51°20.55 2°59.55 2.8 317 16.8 101850 54
2003-09-26 08:21:41 51°20.55 2°59.58 3.3 42 16.8 101850 54
2003-09-26 08:21:47 51°20.56 2°59.61 3.2 316 16.8 101860 54
2003-09-26 08:21:51 51°20.56 2°59.63 3.1 322 16.8 101860 54
2003-09-26 08:21:57 51°20.57 2°59.66 3 321 16.8 101850 54
2003-09-26 08:22:01 51°20.57 2°59.68 3.4 314 16.8 101850 54
2003-09-26 08:22:07 51°20.58 2°59.71 3.3 315 16.8 101850 54
2003-09-26 08:22:11 51°20.58 2°59.73 2.9 302 16.8 101850 54
2003-09-26 08:22:15 51°20.58 2°59.75 3.1 230 16.8 101850 52
2003-09-26 08:22:21 51°20.59 2°59.78 3 307 16.8 101850 52
2003-09-26 08:22:27 51°20.6 2°59.81 2.9 309 16.8 101850 52
2003-09-26 08:22:31 51°20.6 2°59.84 3.1 311 16.8 101850 52
2003-09-26 08:22:37 51°20.61 2°59.87 3 313 16.8 101850 52
2003-09-26 08:22:41 51°20.61 2°59.89 2.6 227 16.8 101850 52
2003-09-26 08:22:47 51°20.62 2°59.92 2.1 318 16.8 101850 52
2003-09-26 08:22:51 51°20.62 2°59.94 2.8 317 16.8 101850 52
2003-09-26 08:22:57 51°20.62 2°59.97 3.1 310 16.8 101850 51
2003-09-26 08:23:01 51°20.63 2°59.99 2.9 300 16.8 101850 51
2003-09-26 08:23:07 51°20.63 3°0.02 3.2 309 16.8 101850 52
2003-09-26 08:23:11 51°20.64 3°0.04 3.1 299 16.8 101850 52
2003-09-26 08:23:17 51°20.64 3°0.07 3.2 308 16.8 101850 52
2003-09-26 08:23:21 51°20.65 3°0.09 3.4 321 16.8 101850 52
2003-09-26 08:23:27 51°20.65 3°0.12 2.5 294 16.8 101850 53
2003-09-26 08:23:31 51°20.65 3°0.14 4.2 327 16.8 101850 53
2003-09-26 08:23:37 51°20.66 3°0.18 4.3 324 16.8 101850 53
2003-09-26 08:23:41 51°20.66 3°0.2 3.5 320 16.8 101850 53
2003-09-26 08:23:47 51°20.67 3°0.23 3.6 318 16.9 101850 55
2003-09-26 08:23:51 51°20.67 3°0.25 4.2 327 16.9 101850 55
2003-09-26 08:23:55 51°20.68 3°0.27 4.3 327 16.9 101850 56
2003-09-26 08:24:01 51°20.68 3°0.3 4 325 16.9 101850 56
2003-09-26 08:24:07 51°20.69 3°0.33 4.1 320 16.9 101850 56
2003-09-26 08:24:11 51°20.69 3°0.35 3.5 317 16.9 101850 56
2003-09-26 08:24:15 51°20.7 3°0.37 3.7 329 16.9 101850 56
2003-09-26 08:24:21 51°20.7 3°0.4 3.8 334 16.9 101850 56
2003-09-26 08:24:27 51°20.71 3°0.43 4 331 16.9 101850 55
2003-09-26 08:24:31 51°20.71 3°0.45 4.3 332 16.9 101850 55
2003-09-26 08:24:35 51°20.72 3°0.47 4 328 16.9 101850 54
2003-09-26 08:24:41 51°20.72 3°0.5 3.6 321 16.9 101850 54
2003-09-26 08:24:47 51°20.73 3°0.54 3.4 329 16.8 101850 54
2003-09-26 08:24:51 51°20.73 3°0.56 2.2 324 16.8 101850 54
2003-09-26 08:24:57 51°20.74 3°0.59 3.9 319 16.9 101850 55
2003-09-26 08:25:01 51°20.74 3°0.61 3.8 314 16.9 101850 55
2003-09-26 08:25:07 51°20.75 3°0.64 3.7 42 16.8 101850 54
2003-09-26 08:25:11 51°20.75 3°0.66 3.1 328 16.8 101850 54
2003-09-26 08:25:17 51°20.76 3°0.69 3.4 320 16.8 101850 54